Flag for USA

Past Weather in Pueblo, Colorado, USA — Yesterday and Last 2 Weeks

Now
57 °F

Sunny.


Feels Like: 57 °F
Forecast: 89 / 56 °F
Wind: No wind

Location: Pueblo Memorial Airport
Current Time: Sep 21, 2020 at 8:22:36 am
Latest Report: Sep 21, 2020 at 6:53 am
Visibility: 9 mi
Pressure30.01 "Hg(25.31 "Hg at 1430m altitude)
Humidity: 53%
Dew Point: 40 °F
Location of PuebloLocation

Past Weather in Pueblo — Graph

°F

Pueblo Temperature Yesterday

Maximum temperature yesterday: 88 °F (at 3:53 pm)
Minimum temperature yesterday: 53 °F (at 3:53 am)
Average temperature yesterday: 69 °F

High & Low Weather Summary for the Past Weeks

 TemperatureHumidityPressure
High103 °F (Sep 6, 1:53 pm)100% (Sep 9, 2:34 am)30.47 "Hg (Sep 9, 2:34 am)
Low32 °F (Sep 9, 8:19 am)5% (Sep 6, 11:53 am)29.46 "Hg (Sep 7, 5:53 pm)
Average60 °F54%30.10 "Hg
* Reported Sep 6 6:53 am — Sep 21 6:53 am, Pueblo. Weather by CustomWeather, © 2020

Note: Actual official high and low records may vary slightly from our data, if they occured in-between our weather recording intervals... More about our weather records

Pueblo Weather History for the Previous 24 Hours

Scroll right to see more
 ConditionsComfort  
Time TempWeatherWind HumidityBarometerVisibility
6:53 am
Mon, Sep 21
57 °FSunny.No wind53%30.01 "Hg9 mi
5:53 am55 °FClear.6 mph57%29.98 "Hg9 mi
4:53 am60 °FClear.7 mph47%29.95 "Hg9 mi
3:53 am63 °FClear.6 mph43%29.91 "Hg9 mi
2:53 am65 °FClear.17 mph40%29.90 "Hg9 mi
1:53 am59 °FClear.9 mph48%29.92 "Hg9 mi
12:53 am60 °FClear.6 mph52%29.92 "Hg9 mi
11:53 pm
Sun, Sep 20
65 °FClear.No wind39%29.90 "Hg8 mi
10:53 pm66 °FClear.No wind37%29.91 "Hg9 mi
9:53 pm67 °FClear.3 mph36%29.90 "Hg9 mi
8:53 pm69 °FClear.6 mph35%29.90 "Hg9 mi
7:53 pm72 °FClear.5 mph33%29.91 "Hg9 mi
5:53 pm86 °FSunny.14 mph18%29.88 "Hg9 mi
4:53 pm88 °FSunny.13 mph17%29.87 "Hg8 mi
3:53 pm88 °FSunny.8 mph17%29.88 "Hg8 mi
2:53 pm87 °FSunny.9 mph19%29.88 "Hg7 mi
1:53 pm85 °FSunny.9 mph21%29.91 "Hg7 mi
12:53 pm82 °FSunny.6 mph22%29.93 "Hg6 mi
11:53 am79 °FSunny.9 mph27%29.97 "Hg5 mi
10:53 am74 °FSunny.6 mph32%29.99 "Hg6 mi
9:53 am71 °FSunny.10 mph34%29.99 "Hg7 mi
8:53 am67 °FSunny.No wind36%29.98 "Hg8 mi
Weather by CustomWeather, © 2020

See weather overview